Вернуться в каталог

STARLINK-35946

АктивенСвязьVLEO
NORAD 66522·PAYLOAD·🇺🇸 United States

Запущен Nov 19, 2025 с Cape Canaveral Space Force Station

Loading…

Ближайшие Пролёты (ближайшие 24 часа)

TLE

СвежийSource: CelesTrak SupGP

Эпоха: Sep 15, 2026, 02:46 UTC

1 66522C 25265G   26258.11576389  .00012057  00000+0  43659-3 0  2586
2 66522  43.0022 288.4222 0001206 267.6396 344.3316 15.27580506    14

Отслеживайте STARLINK-35946 в реальном времени с AllMySat

Download on the App Store